Location: Stara Lesna
(49.1528°N, 20.2911°E)
Time: 17:22:09
(UTC+02:00)

Cosmos 921 Rocket - Pass Details

Date: 13 July 2020
Orbit: 572 x 631 km, 75.8° (Epoch: 11 August)

Event Time Altitude Azimuth Distance (km) Brightness Sun altitude
Rises 03:54:32 0° 331° (NNW) 2,903 6.7 -7.5°
Reaches altitude 10° 03:56:59 10° 322° (NW) 1,983 5.8 -7.2°
Maximum altitude 04:00:52 31° 260° (W) 1,077 3.9 -6.7°
Drops below altitude 10° 04:04:40 10° 198° (SSW) 1,935 5.1 -6.3°
Enters shadow 04:06:37 - 190° (S) 2,657 5.8 -6.1°
